Regional Weather Roundup
Issued by NWS Bismarck, ND

Home | Current Version | Previous Version | Text Only | Print | Product List | Glossary On
Versions: 1 2 3 4 5 6 7 8 9 10 11 12 13 14 15 16 17 18 19 20 21 22 23 24 25 26 27 28 29 30 31 32 33 34 35 36 37 38 39 40 41 42 43 44 45 46 47 48 49 50
000
ASUS43 KBIS 180910
RWRBIS

NWR BROADCAST TEXT
NATIONAL WEATHER SERVICE BISMARCK ND
400 AM CDT SAT APR 18 2015

NOTE: "FAIR" INDICATES FEW OR NO CLOUDS BELOW 12,000 FEET WITH NO
SIGNIFICANT WEATHER AND/OR OBSTRUCTIONS TO VISIBILITY.


CITY           SKY/WX    TMP DP  RH WIND       PRES   REMARKS
WILLISTON      CLEAR     48  25  40 SE6       30.03F
MINOT          CLEAR     37  26  64 E7        30.09F
MINOT AFB      CLEAR     32  27  82 SE3       30.09F
BISMARCK       CLEAR     35  26  69 E3        30.09F
DICKINSON      CLEAR     42  26  53 SE12      30.02F
GARRISON         N/A     40  29  64 E6        30.08F
HETTINGER ARPT MOCLDY    34  26  72 CALM      30.06S
JAMESTOWN      CLEAR     34  24  67 NE6       30.10F
BEACH          FAIR      36  25  64 SE3       30.03F
CARRINGTON     FAIR      36  27  69 E7        30.13F
CROSBY         FAIR      43  27  52 SE12      30.03F
HARVEY           N/A    N/A N/A N/A MISG        N/A
HAZEN          FAIR      37  25  60 NE5       30.08F
LINTON         FAIR      45  25  45 E12       30.06F
MANDAN         FAIR      43  27  52 E13       30.08F
OAKES            N/A     41  27  56 NE14      30.08F
RUGBY          FAIR      37  32  81 SE13      30.12F
STANLEY        FAIR      37  27  65 E5        30.08F
WATFORD CITY   FAIR      39  25  56 N5        30.03S
$$

CITY           SKY/WX    TMP DP  RH WIND       PRES   REMARKS
GRAND FORKS    CLEAR     30  25  81 CALM      30.16S
GRAND FORKS AF CLEAR     27  23  84 N2        30.16R
DEVILS LAKE    CLEAR     37  28  70 E6        30.13F
FARGO          CLEAR     42  24  49 NE10      30.10F
CANDO          FAIR      30  25  80 E6        30.15R
CAVALIER       FAIR      37  28  70 NE5       30.18S
GRAFTON        FAIR      36  28  75 NE7       30.18R
GWINNER        SUNNY     39  21  48 N10       30.10S
LANGDON        FAIR      32  28  86 E10       30.16R
ROLLA          FAIR      34  27  75 CALM      30.14F
WALHALLA       FAIR      28  28 100 S7        30.18F
$$

CITY           SKY/WX    TMP DP  RH WIND       PRES   REMARKS
ABERDEEN       MOCLDY    43  27  53 N8        30.06S
MOBRIDGE       MOCLDY    48  27  44 E13       30.04S
BUFFALO          N/A     44  32  62 S8        29.99S
RAPID CITY     CLOUDY    48  45  89 NW6       30.04F
GLASGOW        CLEAR     42  29  59 E13       29.94F
SIDNEY         CLEAR     46  28  49 CALM      30.02F
WOLF POINT     CLEAR     40  28  62 NE5       29.97F
GLENDIVE       CLEAR     43  27  52 SW3       30.01F
MILES CITY     CLEAR     45  31  58 S8        29.99S
BAKER          CLEAR     37  29  72 SE5       30.03F
$$

CITY           SKY/WX    TMP DP  RH WIND       PRES   REMARKS
BILLINGS       CLEAR     43  33  68 SW14      29.98F
GREAT FALLS    PTCLDY    44  28  53 SW10      30.02R
REGINA         PTCLDY    45  30  57 SE21G28   29.95F
$$



USA.gov is the U.S. government's official web portal to all federal, state and local government web resources and services.